• In Sweden
  • List of Countries
  • For 7 days
  • Water Temperature
  • Satellite Maps
  • Weather Map
  • Weather Widgets
  • user-avatar
    Login

    Hourly Weather Farafonovka

    Today, 26 September, Wednesday

    Time Temperature Precipitation Wind Pressure Humidity
    00:00 +4°C° 0 mm 4 mps 747 mmHg 84%
    01:00 +3°C° 0 mm 4 mps 747 mmHg 85%
    02:00 +3°C° 0 mm 4 mps 748 mmHg 85%
    03:00 +2°C° 0 mm 3 mps 749 mmHg 87%
    04:00 +2°C° 0 mm 3 mps 749 mmHg 87%
    05:00 +1°C° 0 mm 4 mps 750 mmHg 88%
    06:00 0°C° 0 mm 4 mps 750 mmHg 89%
    07:00 +1°C° 0 mm 4 mps 751 mmHg 84%
    08:00 +3°C° 0 mm 4 mps 751 mmHg 80%
    09:00 +4°C° 0 mm 4 mps 752 mmHg 76%
    10:00 +5°C° 0 mm 4 mps 751 mmHg 71%
    11:00 +7°C° 0 mm 4 mps 751 mmHg 66%
    12:00 +8°C° 0 mm 5 mps 751 mmHg 61%
    13:00 +9°C° 0 mm 5 mps 751 mmHg 61%
    14:00 +10°C° 0 mm 5 mps 750 mmHg 61%
    15:00 +10°C° 0 mm 5 mps 750 mmHg 60%
    16:00 +9°C° 0 mm 5 mps 749 mmHg 63%
    17:00 +9°C° 0 mm 5 mps 749 mmHg 66%
    18:00 +8°C° 0 mm 5 mps 748 mmHg 69%
    19:00 +7°C° 0.1 mm 5 mps 747 mmHg 69%
    20:00 +7°C° 0.1 mm 6 mps 746 mmHg 69%
    21:00 +6°C° 0.1 mm 7 mps 745 mmHg 68%
    22:00 +6°C° 0.9 mm 8 mps 744 mmHg 74%
    23:00 +5°C° 0.9 mm 8 mps 742 mmHg 79%

    Tomorrow, 27 September, Thursday

    Time Temperature Precipitation Wind Pressure Humidity
    00:00 +5°C° 0.9 mm 9 mps 741 mmHg 84%
    01:00 +5°C° 1.6 mm 9 mps 739 mmHg 85%
    02:00 +5°C° 1.6 mm 9 mps 738 mmHg 86%
    03:00 +3°C° 1.6 mm 9 mps 737 mmHg 86%
    04:00 +5°C° 1 mm 8 mps 736 mmHg 87%
    05:00 +5°C° 1 mm 8 mps 735 mmHg 88%
    06:00 +5°C° 1 mm 7 mps 734 mmHg 89%
    07:00 +6°C° 0.5 mm 7 mps 734 mmHg 85%
    08:00 +6°C° 0.5 mm 7 mps 734 mmHg 81%
    09:00 +8°C° 0.5 mm 7 mps 734 mmHg 77%
    10:00 +8°C° 0.2 mm 7 mps 735 mmHg 74%
    11:00 +7°C° 0.2 mm 8 mps 735 mmHg 70%
    12:00 +8°C° 0.2 mm 9 mps 735 mmHg 67%
    13:00 +8°C° 0.3 mm 9 mps 736 mmHg 66%
    14:00 +7°C° 0.3 mm 8 mps 736 mmHg 64%
    15:00 +7°C° 0.3 mm 8 mps 737 mmHg 63%
    16:00 +8°C° 0.1 mm 7 mps 737 mmHg 65%
    17:00 +7°C° 0.1 mm 6 mps 737 mmHg 67%
    18:00 +7°C° 0.1 mm 5 mps 738 mmHg 68%
    19:00 +6°C° 0 mm 5 mps 738 mmHg 69%
    20:00 +6°C° 0 mm 5 mps 738 mmHg 70%
    21:00 +5°C° 0 mm 5 mps 739 mmHg 71%
    22:00 +5°C° 0 mm 5 mps 739 mmHg 71%
    23:00 +5°C° 0 mm 5 mps 739 mmHg 72%

    Day after tomorrow, 28 September, Friday

    Time Temperature Precipitation Wind Pressure Humidity
    00:00 +4°C° 0 mm 6 mps 740 mmHg 73%
    01:00 +5°C° 0 mm 5 mps 740 mmHg 75%
    02:00 +3°C° 0 mm 5 mps 739 mmHg 77%
    03:00 +3°C° 0 mm 5 mps 739 mmHg 79%
    04:00 +4°C° 0.5 mm 4 mps 739 mmHg 82%
    05:00 +4°C° 0.5 mm 4 mps 738 mmHg 85%
    06:00 +4°C° 0.5 mm 4 mps 737 mmHg 87%
    07:00 +5°C° 2.2 mm 4 mps 736 mmHg 89%
    08:00 +6°C° 2.2 mm 5 mps 735 mmHg 91%
    09:00 +6°C° 2.2 mm 5 mps 734 mmHg 92%
    10:00 +7°C° 2.7 mm 5 mps 733 mmHg 92%
    11:00 +9°C° 2.7 mm 5 mps 732 mmHg 92%
    12:00 +10°C° 2.7 mm 5 mps 732 mmHg 92%
    13:00 +10°C° 0.6 mm 6 mps 732 mmHg 86%
    14:00 +10°C° 0.6 mm 7 mps 732 mmHg 80%
    15:00 +10°C° 0.6 mm 8 mps 733 mmHg 75%
    16:00 +9°C° 0.2 mm 7 mps 734 mmHg 77%
    17:00 +6°C° 0.2 mm 7 mps 736 mmHg 79%
    18:00 +4°C° 0.2 mm 6 mps 737 mmHg 82%
    19:00 +3°C° 0 mm 6 mps 738 mmHg 82%
    20:00 +3°C° 0 mm 6 mps 740 mmHg 82%
    21:00 +2°C° 0 mm 6 mps 741 mmHg 82%
    22:00 +1°C° 0 mm 5 mps 741 mmHg 81%
    23:00 +1°C° 0 mm 5 mps 742 mmHg 80%

    29 September, Saturday

    Time Temperature Precipitation Wind Pressure Humidity
    00:00 0°C° 0 mm 5 mps 743 mmHg 80%
    01:00 0°C° 0 mm 5 mps 743 mmHg 79%
    02:00 -1°C° 0 mm 5 mps 744 mmHg 78%
    03:00 -1°C° 0 mm 5 mps 745 mmHg 78%
    04:00 -1°C° 0 mm 5 mps 745 mmHg 78%
    05:00 -1°C° 0 mm 5 mps 746 mmHg 78%
    06:00 -1°C° 0 mm 5 mps 746 mmHg 78%
    07:00 -1°C° 0 mm 5 mps 747 mmHg 74%
    08:00 0°C° 0 mm 5 mps 747 mmHg 70%
    09:00 +1°C° 0 mm 6 mps 748 mmHg 67%
    10:00 +2°C° 0 mm 6 mps 748 mmHg 63%
    11:00 +3°C° 0 mm 6 mps 749 mmHg 60%
    12:00 +4°C° 0 mm 6 mps 750 mmHg 56%
    13:00 +4°C° 0 mm 6 mps 750 mmHg 55%
    14:00 +5°C° 0 mm 5 mps 750 mmHg 54%
    15:00 +6°C° 0 mm 5 mps 750 mmHg 53%
    16:00 +5°C° 0 mm 4 mps 751 mmHg 57%
    17:00 +4°C° 0 mm 3 mps 751 mmHg 61%
    18:00 +3°C° 0 mm 3 mps 752 mmHg 65%
    19:00 +2°C° 0 mm 3 mps 752 mmHg 67%
    20:00 +1°C° 0 mm 3 mps 753 mmHg 70%
    21:00 +1°C° 0 mm 3 mps 753 mmHg 72%
    22:00 0°C° 0 mm 3 mps 753 mmHg 74%
    23:00 0°C° 0 mm 3 mps 754 mmHg 75%

    30 September, Sunday

    Time Temperature Precipitation Wind Pressure Humidity
    00:00 -1°C° 0 mm 3 mps 754 mmHg 76%
    01:00 -1°C° 0 mm 2 mps 754 mmHg 77%
    02:00 -1°C° 0 mm 2 mps 754 mmHg 79%
    03:00 -2°C° 0 mm 2 mps 754 mmHg 80%
    04:00 -2°C° 0 mm 2 mps 754 mmHg 81%
    05:00 -2°C° 0 mm 2 mps 755 mmHg 82%
    06:00 -2°C° 0 mm 2 mps 755 mmHg 83%
    07:00 +1°C° 0 mm 2 mps 755 mmHg 78%
    08:00 +1°C° 0 mm 3 mps 754 mmHg 73%
    09:00 +2°C° 0 mm 3 mps 754 mmHg 68%
    10:00 +4°C° 0 mm 3 mps 754 mmHg 64%
    11:00 +5°C° 0 mm 4 mps 754 mmHg 60%
    12:00 +6°C° 0 mm 4 mps 754 mmHg 55%
    13:00 +7°C° 0 mm 4 mps 754 mmHg 56%
    14:00 +7°C° 0 mm 4 mps 753 mmHg 56%
    15:00 +7°C° 0 mm 5 mps 753 mmHg 57%
    16:00 +7°C° 0 mm 4 mps 752 mmHg 61%
    17:00 +6°C° 0 mm 4 mps 752 mmHg 65%
    18:00 +5°C° 0 mm 3 mps 752 mmHg 69%
    19:00 +5°C° 0 mm 4 mps 751 mmHg 70%
    20:00 +5°C° 0 mm 4 mps 751 mmHg 71%
    21:00 +5°C° 0 mm 5 mps 751 mmHg 72%
    22:00 +5°C° 0 mm 4 mps 751 mmHg 75%
    23:00 +5°C° 0 mm 4 mps 751 mmHg 78%

    1 October, Monday

    Time Temperature Precipitation Wind Pressure Humidity
    00:00 +5°C° 0 mm 4 mps 751 mmHg 81%
    01:00 +5°C° 0 mm 4 mps 751 mmHg 82%
    02:00 +5°C° 0 mm 4 mps 751 mmHg 83%
    03:00 +5°C° 0 mm 4 mps 751 mmHg 84%
    04:00 +5°C° 0 mm 4 mps 751 mmHg 84%
    05:00 +5°C° 0 mm 4 mps 750 mmHg 85%
    06:00 +4°C° 0 mm 3 mps 750 mmHg 86%
    07:00 +5°C° 0 mm 4 mps 750 mmHg 84%
    08:00 +6°C° 0 mm 4 mps 750 mmHg 81%
    09:00 +7°C° 0 mm 5 mps 751 mmHg 79%
    10:00 +8°C° 0 mm 5 mps 751 mmHg 76%
    11:00 +9°C° 0 mm 5 mps 751 mmHg 73%
    12:00 +10°C° 0 mm 5 mps 751 mmHg 70%
    13:00 +10°C° 0 mm 5 mps 751 mmHg 68%
    14:00 +12°C° 0 mm 5 mps 751 mmHg 66%
    15:00 +12°C° 0 mm 5 mps 751 mmHg 64%
    16:00 +11°C° 0 mm 4 mps 751 mmHg 68%
    17:00 +10°C° 0 mm 3 mps 751 mmHg 71%
    18:00 +9°C° 0 mm 3 mps 751 mmHg 75%
    19:00 +9°C° 0 mm 3 mps 751 mmHg 78%
    20:00 +8°C° 0 mm 3 mps 751 mmHg 80%
    21:00 +7°C° 0 mm 3 mps 751 mmHg 83%
    22:00 +7°C° 0 mm 3 mps 751 mmHg 84%
    23:00 +5°C° 0 mm 3 mps 752 mmHg 86%
    Show more